{"data":{"norad_id":64452,"epoch":"2026-05-25T04:00:03.998880Z","epoch_age_seconds":58042,"freshness":"FRESH","line1":"1 64452U 25130Q   26145.16671295  .00003484  00000+0  12975-3 0  9992","line2":"2 64452  53.1584  93.1224 0001427  90.2716 306.2132 15.30189594  5860","mean_motion":15.30189594,"eccentricity":0.0001427,"inclination_deg":53.1584,"raan_deg":93.1224,"arg_perigee_deg":90.2716,"mean_anomaly_deg":306.2132,"bstar":0.00012975,"rev_number":586,"period_min":94.105985666506,"perigee_km":474.26816226163,"apogee_km":476.22411780979,"semimajor_km":6853.3831400357,"source":"CELESTRAK","updated_at":"2026-05-25T13:38:20.450880Z"}}